Flag for Canada Weather past 2 weeks in Campbell River, British Columbia, Canada

Now
57 °F

Low clouds.


Feels Like: 57 °F
Forecast: 59 / 67 °F
Wind: 5 mph from East

Location: Campbell River Airport

Current Time: Aug 28, 2015 at 6:37:13 AM

Latest Report: Aug 28, 2015 at 6:00 AM


Visibility: 15 mi

Pressure: 29.86 "Hg

Humidity: 100%

Dew point: 57 °F

Location of Campbell RiverLocation

Historic Weather in Campbell River — Graph

°F

Campbell River temperature yesterday

Maximum temperature yesterday: 75 °F (at 4:00 PM)
Minimum temperature yesterday: 52 °F (at 6:00 AM)
Average temperature yesterday: 67 °F

Past Weeks' High & Low Weather Summary

 TemperatureHumidityPressure
High86 °F (Aug 18, 4:00 PM)100% (Aug 16, 6:00 AM)30.29 "Hg (Aug 16, 6:00 AM)
Low45 °F (Aug 25, 6:00 AM)28% (Aug 21, 4:00 PM)29.82 "Hg (Aug 19, 7:00 PM)
Average68 °F59%30.02 "Hg
* Reported Aug 12 9:00 PM — Aug 27 9:00 PM, Campbell River, Weather by CustomWeather, © 2015

Note: Actual official high and low records may vary slightly from our data, if they occured in-between our weather recording intervals... More about our weather records

Advertising

Campbell River weather history for previous 24 hours

 ConditionsComfort  
Time TempWeatherWind HumidityBarometerVisibility
9:00 PM
Thu, Aug 27
66 °FPartly sunny.3 mph64%29.91 "Hg15 mi
8:00 PM66 °FPartly sunny.2 mph64%29.92 "Hg30 mi
7:00 PM70 °FOvercast.3 mph53%29.93 "Hg25 mi
6:00 PM72 °FPartly sunny.6 mph47%29.96 "Hg30 mi
5:00 PM72 °FBroken clouds.7 mph47%29.98 "Hg30 mi
4:00 PM75 °FScattered clouds.8 mph41%30.00 "Hg30 mi
3:00 PM73 °FPartly sunny.8 mph47%30.01 "Hg30 mi
2:00 PM73 °FBroken clouds.7 mph47%30.03 "Hg30 mi
1:00 PM70 °FBroken clouds.8 mph53%30.05 "Hg30 mi
12:00 PM72 °FBroken clouds.7 mph50%30.05 "Hg30 mi
11:00 AM70 °FPartly sunny.2 mph57%30.06 "Hg30 mi
10:00 AM68 °FBroken clouds.3 mph60%30.06 "Hg30 mi
9:00 AM64 °FPartly sunny.2 mph68%30.07 "Hg30 mi
8:00 AM63 °FPartly sunny.No wind68%30.06 "Hg30 mi
7:00 AM54 °FPassing clouds.2 mph88%30.05 "Hg30 mi
6:00 AM52 °FPassing clouds.No wind94%30.04 "Hg30 mi
Weather by CustomWeather, © 2015

See weather overviewHow to use our weather pages